Regional Weather Roundup
Issued by NWS

Home | Current Version | Previous Version | Text Only | Print | Product List | Glossary Off
Versions: 1 2 3 4 5 6 7 8 9 10 11 12 13 14 15 16 17 18 19 20 21 22 23 24 25 26 27 28 29 30 31 32 33 34 35 36 37 38 39 40 41 42 43 44 45 46 47 48 49 50

000
ASUS43 KLSX 300659
RWRMO

WEATHER SUMMARY FOR MISSOURI
NATIONAL WEATHER SERVICE SPRINGFIELD MO
100 AM CST FRI JAN 30 2015

NOTE: "FAIR" INDICATES FEW OR NO CLOUDS BELOW 12,000 FEET WITH NO
       SIGNIFICANT WEATHER AND/OR OBSTRUCTIONS TO VISIBILITY.
       CURRENT SKY AND/OR WEATHER CONDITIONS ARE NOT AVAILABLE FOR
       CHILLICOTHE AND FARMINGTON.

MOZ001>031-035>038-043-044-053-054-300800-
...NORTHERN AND WESTERN MISSOURI...

CITY           SKY/WX    TMP DP  RH WIND       PRES   REMARKS
KANSAS CTY INT CLEAR     26  21  81 N8        30.51F WCI  18
KANSAS C DTWN  CLEAR     30  23  75 N5        30.53F WCI  25
LEE`S SUMMIT   CLEAR     28  21  75 N5        30.52S WCI  23
ST JOSEPH      CLEAR     20  18  92 CALM      30.54S
CHILLICOTHE      N/A     30  21  69 NW3       30.53F
KIRKSVILLE     MOCLDY    27  21  78 NW8G18    30.50S WCI  19

$$
MOZ066>068-077>081-088>096-101>105-300800-
...SOUTHWEST MISSOURI...

CITY           SKY/WX    TMP DP  RH WIND       PRES   REMARKS
SPRINGFIELD    CLEAR     25  21  85 N8        30.48S WCI  16
JOPLIN         CLEAR     28  25  88 CALM      30.53S

$$
MOZ032>034-039>042-045>050-055>058-069>072-300800-
...CENTRAL MISSOURI...

CITY           SKY/WX    TMP DP  RH WIND       PRES   REMARKS
COLUMBIA       CLEAR     29  22  75 N13       30.49R WCI  19
JEFFERSON CITY CLEAR     32  22  66 NW7       30.51S WCI  26
ROLLA          MOCLDY    32  23  69 N12       30.44S WCI  23
SEDALIA        CLEAR     30  22  72 N6        30.51S WCI  24
OSAGE BEACH    PTCLDY    32  21  64 N6        30.50R WCI  26

$$
MOZ051-052-059>065-300800-
...EAST CENTRAL MISSOURI...

CITY           SKY/WX    TMP DP  RH WIND       PRES   REMARKS
ST LOUIS INTL  MOCLDY    35  23  61 NW10      30.45R WCI  27
SPIRIT OF STL  CLOUDY    34  22  61 NW16G25   30.46R WCI  24
ST CHARLES     CLOUDY    34  24  67 NW15      30.46R WCI  24

$$
MOZ072>076-082>087-097>100-106>115-300800-
...SOUTH CENTRAL AND SOUTHEAST MISSOURI...

CITY           SKY/WX    TMP DP  RH WIND       PRES   REMARKS
CAPE GIRARDEAU CLOUDY    38  28  67 N12       30.43R
FARMINGTON     CLOUDY    36  21  55 NW10G20   30.45R WCI  28
POPLAR BLUFF   CLOUDY    36  26  67 N9        30.43R WCI  29
WEST PLAINS    CLEAR     32  23  69 NW5       30.44S WCI  27

$$


USA.gov is the U.S. government's official web portal to all federal, state and local government web resources and services.